Regional Weather Roundup
Issued by NWS San Diego, CA

Home | Current Version | Previous Version | Text Only | Print | Product List | Glossary On
Versions: 1 2 3 4 5 6 7 8 9 10 11 12 13 14 15 16 17 18 19 20 21 22 23 24 25 26 27 28 29 30 31 32 33 34 35 36 37 38 39 40 41 42 43 44 45 46 47 48 49 50
000
ASUS46 KSGX 220011
RWRSGX

SAN DIEGO HOURLY WEATHER ROUNDUP
NATIONAL WEATHER SERVICE SAN DIEGO CA
400 PM PST SUN JAN 21 2018

NOTE: "FAIR" INDICATES FEW OR NO CLOUDS BELOW 12,000 FEET WITH NO
SIGNIFICANT WEATHER AND/OR OBSTRUCTIONS TO VISIBILITY.

CAZ042-043-060-061-PZZ750-775-220100-

GREATER SAN DIEGO AREA

CITY           SKY/WX    TMP DP  RH WIND       PRES   REMARKS
SAN DIEGO AP   PTSUNNY   61  39  44 NW8       30.27R
NATIONAL CITY    N/A     62  42  48 NW1       30.27S
CHULA VISTA      N/A     62  44  52 W2        30.17R
IMPERIAL BEACH SUNNY     62  41  46 NW10      30.26R
BROWN FIELD    SUNNY     59  40  49 W6        30.24S
MIRAMAR MCAS   MOSUNNY   63  37  38 NW6       30.25R
MONTGOMERY FLD SUNNY     61  35  37 NW6       30.25S
GILLESPIE FLD  SUNNY     61  34  36 W9        30.25R

$$

NORTH SAN DIEGO COUNTY

CITY           SKY/WX    TMP DP  RH WIND       PRES   REMARKS
CAMP PENDLETON SUNNY     60  35  39 SW6       30.25R
OCEANSIDE AP   SUNNY     60  39  45 SW6       30.25R
OCEANSIDE HBR    N/A     58  43  57 CALM      30.27S
VISTA            N/A     60  35  39 SW1       30.24R
CARLSBAD       SUNNY     59  39  47 VRB3      30.25R
DEL MAR          N/A     59  41  51 CALM      30.27S
LA JOLLA SCRIP   N/A     59  42  53 W3        30.25S
FALLBROOK        N/A     60  40  47 SW2       30.26R
ESCONDIDO        N/A     60  36  40 W5        30.27R
SAN MARCOS       N/A     61  37  40 W3        30.29R
POWAY            N/A     61  38  42 CALM      30.28S

$$

EAST SAN DIEGO COUNTY

CITY           SKY/WX    TMP DP  RH WIND       PRES   REMARKS
RAMONA         SUNNY     57  38  48 W7        30.24R
SANTEE LAKES     N/A     61  39  44 W5        30.25R
LA MESA          N/A     59  38  46 NW3       30.19S
JAMUL            N/A     58  38  48 CALM      30.27R
MT. LAGUNA OBS   N/A     40  21  45 SW3       30.25F
CAMPO            N/A     54  18  24 S3        30.18S

$$

ORANGE COUNTY AND THE LOS ANGELES BASIN

CITY           SKY/WX    TMP DP  RH WIND       PRES   REMARKS
JOHN WAYNE AP  MOSUNNY   61  35  37 SW7       30.25S
LAGUNA BEACH     N/A     60  46  59 CALM      30.21R
LAKE FOREST FR   N/A     62  36  39 W2        30.15R
HUNTINGTON BCH   N/A     61  46  56 SW2       30.27S
LOS ALAMITOS   FAIR      61  33  35 SW9       30.25R
FULLERTON      PTSUNNY   64  29  26 CALM      30.24S
LONG BEACH     SUNNY     62  36  37 S6        30.25S
L.A. AP        PTSUNNY   60  32  34 W13       30.26R
L.A. DOWNTOWN  SUNNY     61  25  25 VRB5      30.25R

$$

THE INLAND EMPIRE

CITY           SKY/WX    TMP DP  RH WIND       PRES   REMARKS
CORONA         SUNNY     62  22  21 NW6       30.25R
CHINO          PTSUNNY   63  26  24 NW5       30.25S
ONTARIO        PTSUNNY   60  20  21 W7        30.24R
SAN BERNARDINO   N/A     63  18  17 SW7       30.24R
RIVERSIDE AP   SUNNY     61  23  23 W8        30.24R
MORENO VALLEY    N/A     60  32  34 W3        28.35R
MARCH ARB      SUNNY     58  22  24 NW7       30.23S
HORSETHIEF CYN   N/A     60  15  17 CALM      30.27S
PERRIS           N/A     58  24  27 CALM      30.20S
HEMET EAST       N/A     58  18  21 CALM      30.31S
FRENCH VALLEY  FAIR      59  19  21 N3        30.23S
TEMECULA         N/A     61  41  48 W3        30.26R

$$

SAN BERNARDINO AND RIVERSIDE COUNTY MOUNTAINS

CITY           SKY/WX    TMP DP  RH WIND       PRES   REMARKS
BIG BEAR AP    SUNNY     34   5  29 E6        30.22R WCI  29
ANGELUS OAKS     N/A     38  22  52 CALM      30.31R

$$

SOUTHERN DESERT INCLUDING THE COACHELLA VALLEY

CITY           SKY/WX    TMP DP  RH WIND       PRES   REMARKS
PALM SPRINGS   SUNNY     65  15  14 SW5       30.25S
THOUSAND PALMS   N/A     66  18  16 W2        30.21R
PALM DESERT      N/A     68  19  15 CALM      31.85S
THERMAL        SUNNY     68  11  11 NW3       30.22S
BLYTHE         SUNNY     62  13  14 N12       30.24S
IMPERIAL AP    MOSUNNY   64  17  16 NW6       30.25R
EL CENTRO NAS  SUNNY     65  10  11 N7        30.26S
YUMA AZ        MOSUNNY   64  12  13 N9        30.24R
MEXICALI       PTSUNNY   63  10  13 W8        30.25S

$$

UPPER DESERT

CITY           SKY/WX    TMP DP  RH WIND       PRES   REMARKS
VICTORVILLE AP SUNNY     50   7  17 CALM      30.27R
HESPERIA         N/A     51  16  25 NE2       30.49R
APPLE VALLEY     N/A     51  12  20 S5        30.39R
PALMDALE       SUNNY     53  12  19 NE6       30.27S
LANCASTER      SUNNY     52  12  20 CALM      30.28R
EDWARDS AFB    PTSUNNY   51   9  18 CALM      30.26R
DAGGETT        SUNNY     54  16  22 CALM      30.27R
29 PALMS N     MOSUNNY   54  10  17 N9        30.33R
NEEDLES        CLEAR     60  13  15 NE15      30.26R

$$

REGIONAL REPORTS

CITY           SKY/WX    TMP DP  RH WIND       PRES   REMARKS
SANTA BARBARA  SUNNY     60  34  37 SW6       30.26S
SANDBERG       SUNNY     45  20  36 N5G17     30.27R
LAS VEGAS NV   PTCLDY    52  15  23 E7        30.25R
PHOENIX AZ     PTCLDY    57  17  21 W6        30.17R
TIJUANA        MOSUNNY   59  37  44 NW6       30.27R
ENSENADA NW      N/A     60  32  34 W2        30.17S

$$

OFFSHORE ISLANDS

CITY           SKY/WX    TMP DP  RH WIND       PRES   REMARKS
CATALINA ARPT    N/A     53  38  56 NW3       30.26S
SAN NICOLAS IS PTSUNNY   57  33  40 N12       30.26S

$$

MARINE AND OFFSHORE BUOY REPORTS

STATION/POSITION SKY/WX   TEMP    WIND        PRES    VSBY  SWELL
                          AIR SEA DIR/SP/G                  HT/PER/DIR
                          (F)     (DEG/KT/KT) (MB)    (MI)  (FT/S/D)
TANNER BANKS               57 59              1024.9R
S CLEMENTE BASIN           60 62  330/  6/  8 1024.7R         8/290/14
SAN NICOLAS IS.               59                N/A           7/300/13
SO. S. ROSA ISLA           56 57  320/ 16/ 19 1025.2S         8/310/13
W. S. BARBARA CH           56 57  320/ 19/ 25 1025.3
M. S. BARBARA CH           59 59  240/ 10/ 12   N/A
S. MONICA BASIN               60  310/  6/  8 1024.9
S PEDRO CHANNEL               61                N/A           3/270/13
CMP PENDLETON NS              60                N/A           3/250/13
OCEANSIDE OFFSHR              61                N/A           3/260/13
TORREY PINES OTR              62                N/A           3/280/13
SAN DIEGO BAY                 64              1025.1R
POINT LOMA SOUTH              61                N/A           3/280/13

$$




USA.gov is the U.S. government's official web portal to all federal, state and local government web resources and services.